[[{"header":{"parameterUnit":"m.s-1","parameterCategory":1,"la1":30.2991,"la2":30.254,"lo1":-89.0895,"lo2":-89.0444,"dy":0.0017,"dx":0.0017,"nx":28,"ny":28,"refTime":"2026-02-02T03:00:00:Z","depth":0,"parameterNumber":2,"parameterNumberName":"U-component_of_WINDS"},"data":[0,0,0,0,0,0,0,0,0,0,0,0,0,0,0,0,0,0,0,0,0,0,0,0,0,0,0,0,0,0,0,0,0,0,0,0,0,0,0,0,0,0,0,0,0,0,0,0,0,0,0,0,0,0,0,0,0,0,2.3796,2.3797,0,2.3886,2.3887,2.3888,2.3857,2.3855,2.3853,2.3851,2.3943,2.3947,2.3951,0,0,0,0,0,0,0,0,0,0,0,0,0,2.3594,2.3598,2.3796,2.3797,2.3798,2.3886,2.3887,2.3888,2.3857,2.3855,2.3852,2.385,2.3941,2.3946,2.3951,0,0,0,0,0,0,0,0,0,0,0,0,0,2.3683,2.36,2.3796,2.3793,2.3794,2.3886,2.3887,2.3889,2.3858,2.3855,2.3852,2.3849,2.3939,2.3946,2.3952,2.4052,0,0,2.3972,2.3975,0,0,0,0,0,0,0,0,2.3678,2.369,2.3793,2.3794,2.3794,2.3857,2.385,2.3943,2.3858,2.3833,2.3851,2.3847,2.3916,2.3925,2.3948,2.4056,2.406,2.3972,2.3976,2.3979,2.3981,0,0,0,0,0,0,0,2.3672,2.3686,2.3832,2.3794,2.3795,2.3787,2.3796,2.3867,2.3891,2.3835,2.3833,2.3844,2.3916,2.3942,2.395,2.4061,2.3972,2.3978,2.3982,2.3984,2.4251,2.4254,0,0,0,0,0,0,2.3665,2.3681,2.3829,2.3834,2.3728,2.3793,2.3803,2.384,2.389,2.3894,2.3847,2.3843,2.3932,2.3942,2.3953,2.407,2.3979,2.3985,2.3989,2.4248,2.4252,2.4255,0,0,0,0,0,0,2.3661,2.3679,2.3825,2.3757,2.3775,2.3799,2.3841,2.3843,2.3869,2.3898,2.3902,2.3869,2.393,2.3944,2.4026,2.4073,2.3988,2.3994,2.4244,2.4249,2.4253,2.4306,0,0,0,0,0,0,2.3656,2.3678,2.3716,2.3758,2.3779,2.3898,2.3844,2.3847,2.388,2.3875,2.392,2.3924,2.3929,2.4017,2.4033,2.408,2.3999,2.424,2.4246,2.4252,2.43,2.4312,2.4322,0,0,0,0,0,2.3649,2.3728,2.3719,2.3737,2.3828,2.3901,2.3912,2.3916,2.3884,2.3922,2.3941,2.3923,2.4066,2.4026,2.4043,2.4093,2.4237,2.4244,2.4251,2.4295,2.431,2.4322,0,0,0,0,0,0,2.3691,2.3734,2.3723,2.3819,2.3857,2.3895,2.3944,2.3932,2.3979,2.3973,2.3975,2.3986,2.407,2.409,2.4045,2.419,2.4146,2.4157,2.4173,2.4187,2.4198,2.419,2.4004,0,0,0,0,0,2.3712,2.3768,2.3802,2.3883,2.3902,2.392,2.3952,2.3951,2.399,2.4005,2.403,2.4068,2.4121,2.4156,2.4206,2.4303,2.4311,2.4346,2.4357,2.4366,2.4375,2.4424,2.4439,2.4279,2.4279,2.4279,0,0,2.3755,2.3785,2.3821,2.3892,2.3921,2.3977,2.3933,2.3996,2.4037,2.4015,2.4093,2.4113,2.4155,2.4244,2.4285,2.4264,2.4421,2.4375,2.4382,2.4386,2.4433,2.4448,2.4462,2.4284,2.4283,2.4282,0,0,2.3862,2.3892,2.3961,2.399,2.4034,2.4045,2.4061,2.4102,2.4113,2.4192,2.4176,2.4225,2.4317,2.4346,2.4373,2.4489,2.4473,2.4506,2.4562,2.461,2.4623,2.4634,2.4672,2.4686,2.4515,2.4515,2.4515,0,2.391,2.3995,2.3998,2.4061,2.4092,2.4074,2.4143,2.4171,2.4229,2.425,2.4226,2.4339,2.4366,2.446,2.4488,2.4512,2.4529,2.45,2.4621,2.4632,2.4643,2.4679,2.4694,2.4518,2.4518,2.4518,2.4517,0,2.405,2.4109,2.4159,2.4215,2.4252,2.4318,2.4329,2.4366,2.4362,2.4375,2.4454,2.4486,2.4541,2.4564,2.4562,2.4657,2.4642,2.462,2.4575,2.4661,2.4695,2.4709,2.4523,2.4522,2.4521,2.452,0,0,2.4186,2.4241,2.4259,2.4283,2.4329,2.4374,2.4438,2.4492,2.4522,2.4562,2.4614,2.4691,2.467,2.47,2.4701,2.4744,2.4829,2.4715,2.4716,2.4733,2.4933,2.4947,2.4964,2.482,2.4822,2.4825,2.4928,0,2.4294,2.4406,2.441,2.4512,2.4564,2.4547,2.4603,2.4636,2.465,2.4696,2.4711,2.4764,2.4733,2.4751,2.4793,2.481,2.4869,2.4803,2.4866,2.4868,2.4853,2.4982,2.4999,2.5095,2.4942,2.4944,2.4946,0,2.4435,2.4478,2.4585,2.4621,2.4643,2.4693,2.4741,2.4786,2.4823,2.4829,2.4863,2.4856,2.492,2.4875,2.4961,2.4916,2.4942,2.4954,2.4958,2.4962,2.491,2.4987,2.5126,2.5139,2.4967,2.4966,2.4964,0,2.4519,2.4605,2.4679,2.47,2.4745,2.4779,2.48,2.4834,2.4865,2.4906,2.4926,2.4975,2.5001,2.5039,2.5045,2.5012,2.513,2.5087,2.5136,2.5135,2.516,2.5158,2.5302,2.5181,2.5181,2.5181,2.518,0,2.4638,2.4703,2.4717,2.4762,2.4834,2.4838,2.4908,2.4926,2.4956,2.5003,2.4992,2.5037,2.5043,2.5089,2.5095,2.5163,2.5176,2.5182,2.5182,2.5181,2.518,2.5197,2.5189,2.5185,2.5184,2.5183,2.5182,0,2.4743,2.4756,2.4835,2.487,2.488,2.4931,2.4961,2.5003,2.5015,2.5075,2.5089,2.5108,2.5161,2.5171,2.5235,2.5238,2.5319,2.5314,2.5306,2.5304,2.5352,2.5346,2.551,2.553,2.5399,2.54,2.5401,0,2.4817,2.4866,2.4906,2.4937,2.4958,2.5009,2.504,2.5045,2.5077,2.5122,2.5158,2.521,2.5251,2.5336,2.5355,2.5402,2.5397,2.5451,2.5404,2.54,2.5394,2.5389,2.5393,2.5459,2.546,2.5462,2.5462,0,2.4945,2.4948,2.4993,2.504,2.5077,2.5115,2.515,2.5176,2.5185,2.5222,2.5276,2.5308,2.5371,2.5422,2.5469,2.5488,2.5476,2.5477,2.5491,2.5489,2.5481,2.5483,2.5327,2.5473,2.5472,2.5471,2.5471,2.547,2.5034,2.5076,2.511,2.516,2.5187,2.522,2.5261,2.5277,2.5322,2.5374,2.5374,2.5432,2.5465,2.5527,2.5549,2.5594,2.5577,2.5597,2.5601,2.5605,2.5608,2.5476,2.5603,2.5603,2.5602,2.5602,2.5602,0,2.5159,2.5179,2.5226,2.5275,2.5314,2.53,2.5338,2.5371,2.5422,2.5454,2.5494,2.5554,2.5603,2.5625,2.5672,2.5703,2.5699,2.5715,2.5712,2.5716,2.5623,2.5605,2.5718,2.5718,2.5718,2.5718,2.5718,2.5718,2.5228,2.5297,2.5304,2.5386,2.5406,2.5462,2.5484,2.5514,2.5539,2.5607,2.5647,2.5661,2.5688,2.5737,2.578,2.5785,2.5802,2.5821,2.5823,2.5735,2.5723,2.5712,2.5695,2.5825,2.5825,2.5912,2.5913,2.5913]},{"header":{"parameterUnit":"m.s-1","parameterCategory":1,"la1":30.2991,"la2":30.254,"lo1":-89.0895,"lo2":-89.0444,"dy":0.0017,"dx":0.0017,"nx":28,"ny":28,"refTime":"2026-02-02T03:00:00:Z","depth":0,"parameterNumber":3,"parameterNumberName":"V-component_of_WINDS"},"data":[0,0,0,0,0,0,0,0,0,0,0,0,0,0,0,0,0,0,0,0,0,0,0,0,0,0,0,0,0,0,0,0,0,0,0,0,0,0,0,0,0,0,0,0,0,0,0,0,0,0,0,0,0,0,0,0,0,0,5.031,5.031,0,5.034,5.034,5.034,5.0258,5.0255,5.0253,5.025,5.0279,5.0282,5.0285,0,0,0,0,0,0,0,0,0,0,0,0,0,5.0179,5.0182,5.031,5.031,5.0311,5.034,5.034,5.034,5.0258,5.0255,5.0252,5.0249,5.0278,5.0281,5.0285,0,0,0,0,0,0,0,0,0,0,0,0,0,5.0225,5.0183,5.031,5.0273,5.027,5.0339,5.034,5.034,5.0259,5.0255,5.0251,5.0248,5.0276,5.0281,5.0285,5.0391,0,0,5.03,5.0302,0,0,0,0,0,0,0,0,5.0222,5.023,5.0278,5.0276,5.0273,5.0291,5.0304,5.0357,5.026,5.0263,5.025,5.0246,5.0286,5.0289,5.0303,5.0392,5.0393,5.03,5.0303,5.0305,5.0306,0,0,0,0,0,0,0,5.0219,5.0228,5.0322,5.0279,5.0276,5.0254,5.0257,5.0314,5.0295,5.0263,5.0257,5.0262,5.0283,5.0299,5.0303,5.0394,5.03,5.0304,5.0307,5.0309,5.0566,5.057,0,0,0,0,0,0,5.0221,5.0226,5.0321,5.0323,5.0238,5.026,5.0262,5.0289,5.0295,5.0292,5.0265,5.0258,5.0293,5.0298,5.0304,5.0424,5.0305,5.0309,5.0312,5.0562,5.0567,5.0571,0,0,0,0,0,0,5.0219,5.0231,5.032,5.0273,5.0282,5.0266,5.0297,5.0292,5.0307,5.0296,5.0292,5.0284,5.029,5.0297,5.0369,5.0424,5.0311,5.0316,5.0557,5.0563,5.0569,5.0668,0,0,0,0,0,0,5.0215,5.023,5.0271,5.0274,5.0285,5.0385,5.03,5.0295,5.0316,5.0307,5.0313,5.0311,5.0288,5.0362,5.0374,5.0428,5.0319,5.0552,5.056,5.0567,5.0659,5.0676,5.0691,0,0,0,0,0,5.0211,5.0298,5.0273,5.0285,5.0336,5.0389,5.0395,5.0367,5.0321,5.036,5.0353,5.0311,5.0417,5.037,5.0382,5.044,5.0548,5.0558,5.0566,5.0652,5.0673,5.0691,0,0,0,0,0,0,5.0301,5.0298,5.0271,5.0362,5.0376,5.0375,5.0424,5.0391,5.0418,5.0408,5.0372,5.0374,5.0452,5.0453,5.0401,5.054,5.0474,5.0486,5.0536,5.0555,5.0571,5.0567,5.0323,0,0,0,0,0,5.0332,5.0376,5.037,5.0451,5.046,5.0441,5.0463,5.044,5.0454,5.0459,5.0457,5.0471,5.0507,5.0532,5.0565,5.066,5.0658,5.0705,5.0721,5.0734,5.0744,5.0791,5.081,5.0601,5.0601,5.0601,0,0,5.0396,5.0399,5.0429,5.0469,5.0478,5.0522,5.0447,5.0498,5.053,5.0467,5.0533,5.0533,5.0545,5.0629,5.0665,5.0632,5.0801,5.0745,5.0756,5.0758,5.0802,5.0822,5.0839,5.0607,5.0606,5.0605,0,0,5.0533,5.0542,5.0608,5.0618,5.0632,5.0619,5.0635,5.0639,5.0635,5.0702,5.0654,5.0692,5.0756,5.0766,5.0779,5.0919,5.088,5.0931,5.1012,5.1059,5.1075,5.1089,5.1136,5.1154,5.0941,5.0942,5.0942,0,5.061,5.0677,5.0647,5.07,5.0718,5.0663,5.0728,5.0739,5.0763,5.0776,5.0739,5.0816,5.0822,5.0904,5.0938,5.0952,5.0967,5.0929,5.1075,5.1089,5.1102,5.1146,5.1164,5.0948,5.0947,5.0946,5.0946,0,5.0768,5.0815,5.0867,5.0891,5.0915,5.0974,5.0951,5.0979,5.0954,5.0944,5.1011,5.1015,5.1046,5.1065,5.1042,5.1144,5.1123,5.1082,5.1015,5.1129,5.1169,5.1186,5.0956,5.0954,5.0952,5.0951,0,0,5.0964,5.0969,5.0988,5.0997,5.1007,5.1042,5.1098,5.1129,5.1152,5.117,5.1214,5.1269,5.123,5.1246,5.1223,5.1264,5.137,5.1217,5.1216,5.1242,5.1479,5.1508,5.1528,5.1345,5.1349,5.1351,5.1477,0,5.1096,5.1192,5.1166,5.1262,5.1302,5.125,5.1298,5.1309,5.1301,5.1334,5.1325,5.1363,5.1311,5.1319,5.1358,5.1349,5.1417,5.134,5.1383,5.1385,5.1379,5.155,5.1581,5.1699,5.1493,5.1496,5.1498,0,5.1264,5.1288,5.1387,5.1388,5.1404,5.1449,5.1473,5.1506,5.1516,5.1507,5.1524,5.1492,5.1545,5.148,5.1551,5.15,5.1516,5.1515,5.1519,5.1519,5.1446,5.1552,5.1737,5.1754,5.1523,5.1521,5.1519,0,5.1392,5.1449,5.1515,5.1524,5.1528,5.156,5.1563,5.157,5.1589,5.161,5.1622,5.165,5.1664,5.1686,5.1662,5.1617,5.1735,5.1669,5.1727,5.1728,5.1752,5.175,5.1939,5.1769,5.1768,5.1768,5.1768,0,5.1541,5.1603,5.1572,5.1612,5.1679,5.1648,5.1715,5.1711,5.1718,5.1755,5.1713,5.1748,5.1716,5.1748,5.173,5.179,5.1798,5.179,5.1784,5.1792,5.1793,5.18,5.179,5.1773,5.1772,5.1771,5.177,0,5.1694,5.1676,5.1744,5.1741,5.1742,5.1791,5.1789,5.1825,5.1814,5.1861,5.1871,5.1853,5.1889,5.1868,5.1905,5.1892,5.1969,5.1953,5.1965,5.196,5.2018,5.2011,5.2215,5.2239,5.2056,5.2058,5.206,0,5.1789,5.1835,5.1837,5.1859,5.1865,5.1901,5.192,5.1891,5.1912,5.1927,5.196,5.1993,5.2016,5.2076,5.2066,5.2093,5.2075,5.2145,5.2079,5.2085,5.2072,5.2068,5.2071,5.2157,5.216,5.2161,5.2163,0,5.1958,5.1946,5.1975,5.2001,5.2025,5.2044,5.2059,5.2079,5.205,5.2076,5.2112,5.213,5.2167,5.2199,5.2221,5.2223,5.2187,5.2184,5.2198,5.2205,5.2209,5.2204,5.1998,5.2179,5.2177,5.2176,5.2175,5.2175,5.2082,5.2119,5.2126,5.2159,5.2167,5.2182,5.2215,5.2208,5.2237,5.2264,5.2246,5.2287,5.2294,5.2321,5.2328,5.2359,5.233,5.2352,5.2357,5.2362,5.2368,5.2207,5.2363,5.2363,5.2362,5.2362,5.2362,0,5.2246,5.2247,5.2278,5.23,5.2326,5.2291,5.2305,5.2329,5.2366,5.2376,5.24,5.244,5.247,5.2462,5.2488,5.2515,5.2499,5.2522,5.2518,5.2519,5.2394,5.2377,5.2534,5.2534,5.2534,5.2534,5.2534,5.2534,5.2334,5.2393,5.2382,5.2445,5.2446,5.2486,5.2497,5.2509,5.2517,5.2563,5.2588,5.2582,5.2584,5.2611,5.2636,5.2633,5.2643,5.2672,5.2662,5.2545,5.2528,5.2511,5.2495,5.2675,5.2675,5.2784,5.2785,5.2786]}]]